ImprimablePdf
Antwerp, 25/04/2010, BEL - DVV Antwerp Marathon & 10 Miles
Liste des rapports > 10 Miles - Classement + Video
Recherche: Page: [1] 2
207 Entrées
 
Les réclamations ne sont plus acceptées, les résultats sont considérés comme définitifs.
RangNrNomAgeIOCTempsTkmMoy.ScrLocalité
1.19183VAN MOLLE Rudy61BEL1:07:444:13 14.26363ZWIJNDRECHT
2.15283IPERMANS Ludo64BEL1:08:574:18 14.01445
3.317VAN DYCK Staf61BEL1:11:324:27 13.50687BRASSCHAAT
4.18363LEYERS Francois62BEL1:12:064:29 13.40750WILRIJK
5.18805GILLES Jean-Guy63BEL1:12:134:30 13.37760DAMPREMY
6.6236DAL BOSCO Jean60BEL1:12:394:31 13.29803WILRIJK (ANTWERPEN)
7.9550DE ROCKER Romain63BEL1:12:434:32 13.28815WACHTEBEKE
8.14117VAN GAEL Andre63BEL1:13:094:33 13.20878ZOERSEL
9.597MARTENS Hugo60BEL1:13:154:34 13.18901ZWIJNDRECHT
10.555VAN OSSELAER Marc60BEL1:14:234:38 12.991072BRASSCHAAT
11.10112ARNOLD Andre60BEL1:14:554:40 12.891162MECHELEN
12.12866BEELS Roger62BEL1:14:574:40 12.881173ANTWERPEN
13.13565KEYMOLEN Luc62BEL1:15:144:41 12.841213ANTWERPEN 1
14.10523JACOBS Joseph62BEL1:16:304:46 12.631452EKEREN (ANTWERPEN)
15.8753VAN DEN BRULLE Roland61BEL1:16:544:47 12.561548BRAKEL
16.7926HEIRMAN Paul61BEL1:16:584:47 12.551561LOKEREN
17.18517DE FEYTER Marc62BEL1:17:374:50 12.441687GRIMMINGE
18.9221VAN HOVE Antoine63BEL1:17:484:51 12.411727TEMSE
19.13267VAN DER PUT Jozef63BEL1:18:104:52 12.351817WILRIJK (ANTWERPEN)
20.18140JANSSENS Rudy64BEL1:18:324:53 12.301895SINT-PAUWELS
21.14560STOCKMANS Georges62BEL1:18:514:54 12.251971BUNSBEEK
22.6982DEWITH Ben62BEL1:19:084:55 12.202054BRASSCHAAT
23.8879VAN STAPPEN Etienne62BEL1:19:214:56 12.172117ZWIJNDRECHT
24.530VANGHELUWE Bob63BEL1:19:234:56 12.172127HOBOKEN
25.9517VAN GREMBERGHE Freddy62BEL1:19:254:57 12.162136ZWIJNDRECHT
26.19165DE BRUYN Karel61BEL1:20:084:59 12.052329HEFFEN
27.18669BERGES Dirk60BEL1:20:265:00 12.012418WILRIJK (ANTWERPEN)
28.13318REYNDERS Lode62BEL1:20:405:01 11.972483LINT
29.9787BAERT Marc61BEL1:22:145:07 11.742947BRASSCHAAT
30.947LEYZEN Luk62BEL1:22:255:08 11.722997LIER
31.16421VAN GEYT Freddy60BEL1:22:535:09 11.653139
32.332CALUWE Freddy60BEL1:23:015:10 11.633172HAASDONK
33.10065DUPLACIE Bernard62BEL1:23:185:11 11.593244KEMMEL
34.16555CLEEREN Georges64BEL1:23:405:12 11.543340
35.10751DEVEL Luc62BEL1:23:505:13 11.523403AARTSELAAR
36.1068WEIJTMANS Ad62NLD1:24:095:14 11.483487TILBURG
37.18429GORREMANS Marcel63BEL1:24:195:15 11.463536BOECHOUT
38.6591DE MAEYER Karel61BEL1:24:265:15 11.443573TEMSE
39.15082STUYCK Marcel64BEL1:24:295:15 11.433588
40.4371EMERENCIA Nelo61BEL1:24:305:15 11.433591OVERIJSE
41.14110DE WILDE Leon64BEL1:25:205:19 11.323873LAARNE
42.4285COLLET Lucas60BEL1:25:245:19 11.313897HERSELT
43.876FAES Vic61BEL1:25:435:20 11.274002EDEGEM
44.1833DOUCHY Jacques60BEL1:25:465:20 11.264015LIER
45.18491GOEZINNE Simon63BEL1:25:505:20 11.254037EDEGEM
46.18708SWITSERS Jef62BEL1:26:035:21 11.224109KONTICH
47.14225THIJS Jan60BEL1:26:425:24 11.144357HOUTHALEN
48.10309JANSSENS Jacky60BEL1:26:485:24 11.134392BERCHEM (ANTWERPEN)
49.6972VAN DEN BLEEKEN Leo64BEL1:27:015:25 11.104456KAPELLEN (ANTW.)
50.4557BREUGELMANS Louis60BEL1:27:395:27 11.024716ZOERSEL
51.16221JACQUEMYN Georges64BEL1:27:405:27 11.024719
52.13434ANTHONISSEN Alfons61BEL1:27:555:28 10.994810KALMTHOUT
53.14906DE RIDDER Gilbert63BEL1:27:555:28 10.994811
54.2004DOUWS Roger61BEL1:28:045:29 10.974858EKEREN (ANTWERPEN)
55.19126FRANSSENS Werner60BEL1:28:095:29 10.964897BEVEREN
56.13409PIESSENS Kamiel61BEL1:28:115:29 10.954913OPPUURS
57.9724PEETERS Jef63BEL1:28:155:29 10.944941ESSEN
58.19460VAN LAERE Hilaire63BEL1:28:175:30 10.944950HAASDONK
59.4941CLEYS Francois62BEL1:28:315:30 10.915033ZWIJNDRECHT
60.11697GUNS Luc62GER1:28:325:31 10.915046LUDWIGSHAFEN
61.2346JANSSENS Robert61BEL1:28:335:31 10.915057KURINGEN
62.4689BURSENS Paul60BEL1:28:405:31 10.895100AALST
63.19121MEUL Erik62BEL1:28:445:31 10.885122MELSELE
64.4295VERLUYTEN Rene64BEL1:28:495:32 10.875150HASSELT
65.10298BRAECKMANS Francois62BEL1:28:515:32 10.875158ANTWERPEN 1
66.6381BREMS Guy61BEL1:28:565:32 10.865196STEVOORT
67.11532DOMS Gino61BEL1:28:595:32 10.855222BRECHT
68.5789MESTDAGH Bernard61BEL1:29:065:33 10.845264EKEREN (ANTWERPEN)
69.4885GIJBELS Jaak62BEL1:29:235:34 10.815367ZOERSEL
70.10305DE BRUYN Andre61BEL1:29:335:34 10.795441WILRIJK (ANTWERPEN)
71.11652VAN LAENEN Alfons62BEL1:29:375:35 10.785468BRECHT
72.10554VAN GESTEL Ludo62BEL1:29:435:35 10.765509WUUSTWEZEL
73.2688SMET Marc62BEL1:29:585:36 10.735601KEERBERGEN
74.4682WOUTERS Jan60BEL1:29:595:36 10.735606BRASSCHAAT
75.3110DEPINOIS Walter61BEL1:30:145:37 10.705699VLAMERTINGE
76.2322VERMEULEN Dirk61BEL1:30:415:39 10.655870DEURNE (ANTWERPEN)
77.19547DE KOEIJER Willem Jan64NLD1:30:485:39 10.645914AXEL
78.8661OUTTIER Roland60BEL1:30:505:39 10.635928IEPER
79.4686OERLEMANS Lucien60BEL1:31:155:41 10.586081KAPELLEN
80.19045BERTOLO Paul63BEL1:31:185:41 10.586096BERCHEM (ANTWERPEN)
81.7299WAUTERS Joos60BEL1:31:245:41 10.576150PUURS
82.14859MUYS Daniel61BEL1:31:385:42 10.546229
83.19112BERNAERS Robert60BEL1:31:405:42 10.546259ZWIJNDRECHT
84.15248VAN ROEYEN Paul61BEL1:32:245:45 10.456549
85.8051CAMBRE Luc60BEL1:32:355:46 10.436611EKEREN (ANTWERPEN)
86.5338ROMERO Stephan62GER1:32:475:46 10.416687KONSTANZ
87.19283VYDT Eddy64BEL1:32:535:47 10.406718WILRIJK
88.981VAN BROEKHOVEN Leo60BEL1:32:585:47 10.396758GENT
89.9324PLUCHINO Vincent60BEL1:33:135:48 10.366855BERINGEN
90.3499DIELEN Hugo63BEL1:33:165:48 10.356875EDEGEM
91.18451MOONS Maurice62BEL1:33:175:48 10.356879DUFFEL
92.18945NAUWELAERTS Marc64BEL1:33:315:49 10.336976HOVE
93.3361HAEST Leo60BEL1:33:545:51 10.287166HERENTALS
94.11032VAN GESTEL Jozef63BEL1:33:555:51 10.287178BRECHT
95.14185VAN DE VELDE Wilfried64BEL1:33:555:51 10.287179BEVEREN-WAAS
96.6460VAN LIEROP Roger64BEL1:34:375:53 10.217506KRUIBEKE
97.11509VERHESPEN Ludovicus62BEL1:34:375:53 10.217511SCHOTEN
98.11130DE DONDER Hugo60BEL1:34:595:55 10.177625EDEGEM
99.3141POELMANS Luk62BEL1:35:185:56 10.137759HAACHT
100.13923VERBELEN Marc62BEL1:35:255:56 10.127806MORTSEL
101.13161COLLIGNON Roger64BEL1:35:405:57 10.107898DEURNE (ANTWERPEN)
102.13525VAN MAROEY Staf64BEL1:35:525:58 10.077976DEURNE (ANTWERPEN)
103.1371VAN WESENBEECK Georges62BEL1:35:535:58 10.077984ANTWERPEN
104.19069VAN ROEYEN Theo62BEL1:36:035:59 10.058055ZWIJNDRECHT
105.9134GOOS Leo60BEL1:36:155:59 10.038125OUD-TURNHOUT
106.18331FLORIN Paul63BEL1:36:236:00 10.028184BEVEREN-WAAS
107.19063BLYWEERT Guido64BEL1:36:236:00 10.028188BURCHT
108.16668COLEBUNDERS Robert61BEL1:36:266:00 10.018208
109.9171SEYNS Etienne64BEL1:36:336:00 10.008267KALMTHOUT
110.11165WILLEMS Rien64BEL1:36:396:01 9.998304ESSEN
111.5605GYBELS Joris61BEL1:36:446:01 9.988341DEURNE
112.10679BROST Ed62BEL1:37:076:02 9.958486ANTWERPEN
113.1105KWIECINSKI Vladimir61BEL1:37:086:03 9.948497KAPELLEN
114.19012DILLEN Johan64BEL1:37:226:03 9.928589BEVEREN-WAAS
115.18665DE VOECHT Paul62BEL1:37:336:04 9.908661WILRIJK (ANTWERPEN)
116.16337JANSSENS Jan61BEL1:37:346:04 9.908666
117.19103ALLARD Raoul61BEL1:37:476:05 9.888745HOBOKEN (ANTWERPEN)
118.8617VAN EMMERICK Ronny60BEL1:38:246:07 9.818983WOMMELGEM
119.5572DUCHATEAU Frans64BEL1:38:356:08 9.809064SINT-TRUIDEN
120.8614DALESSI John60NLD1:38:366:08 9.809069OUD BEYERLAND
121.2706DE MUNCK Rudy62BEL1:38:406:08 9.799098SINT-NIKLAAS
122.5940KOOPMAN Harry63NLD1:39:106:10 9.749315BREDA
123.2048BRESSELEERS Gie60BEL1:39:136:10 9.739334SCHOTEN
124.14106ACX Patrick61BEL1:39:196:11 9.739381WEVELGEM
125.16936TISAUN Paul60BEL1:39:236:11 9.729398
126.9759DUPONT Joseph61BEL1:39:246:11 9.729402MOL
127.5934LENAERTS Jef60BEL1:39:396:12 9.699486RIJKEVORSEL
128.4690GABRIELS Willy60BEL1:39:466:12 9.689522GENK
129.4268HUYBRECHTS Rene63BEL1:40:176:14 9.639694EDEGEM
130.19015VAN CAMP Marcel61BEL1:40:216:15 9.629716PUURS
131.15282SNIJDERS Albert61BEL1:40:346:15 9.609773
132.1904VERWEIJ Pieter62NLD1:40:396:16 9.609794DORDRECHT
133.10510ADAM Dirk62BEL1:40:446:16 9.599825WILRIJK (ANTWERPEN)
134.18496BASTIAENS Jo62BEL1:40:546:17 9.579872LIER
135.19476BRUGHMANS Achille61BEL1:41:036:17 9.569915BRECHT
136.14189DEMEERSMAN Herman62BEL1:41:146:18 9.549964BORGERHOUT (ANTWERPEN)
137.17076VANDESANDE Eduard60BEL1:41:166:18 9.549978
138.4880RAES Gilbert60BEL1:41:186:18 9.539998BELSELE
139.4130KEUPPENS Leo63BEL1:41:186:18 9.5310000ESSEN
140.7781VAN NIJEN Leo64BEL1:41:196:18 9.5310006VOSSELAAR
141.16937BAL Raymond62BEL1:41:226:18 9.5310021
142.3669LUYTEN Michel63BEL1:41:376:19 9.5010119BERCHEM (ANTW.)
143.18377MARTENS Andre62BEL1:41:396:19 9.5010126NIEUWKERKEN-WAAS
144.14845BENIEST Luc63BEL1:41:556:20 9.4810226
145.4009VERHEMELDONCK Guy62BEL1:42:056:21 9.4610288MORTSEL
146.2334VEREECKEN Ludo60BEL1:42:126:21 9.4510310AARTSELAAR
147.14938VAN DEN HEULE Guido61BEL1:42:246:22 9.4310379
148.14320WAUMANS Luc62BEL1:42:396:23 9.4110434MELSELE
149.5304VAN DE KEERE Eric60BEL1:42:466:24 9.4010479BORSBEKE
150.12914GAEMERS Andre61BEL1:42:566:24 9.3810530BERCHEM (ANTWERPEN)
151.19467GEERINCKX Dirk63BEL1:43:236:26 9.3410664ANTWERPEN 1
152.10756HOFMANS Josephus62BEL1:43:456:27 9.3110781BRECHT
153.1089REYNAERT Paul62BEL1:43:586:28 9.2910857SCHOTEN
154.2462KORSEN Olav64NOR1:44:006:28 9.2910868GJOVIK
155.19017SZAPINSKY Luc60BEL1:44:136:29 9.2710936PUURS
156.8881VAN DE MERLEN Jean64BEL1:44:476:31 9.2211120WUUSTWEZEL
157.4081VAN DAMME Engelbert63BEL1:45:056:32 9.1911177MERKSEM (ANTWERPEN)
158.6621KLOOTS Leo64BEL1:45:096:32 9.1811194ZANDVLIET
159.16785VAN KERKHOVE Ivo60BEL1:45:356:34 9.1511327
160.3675MAKINTOSH Edouard62BEL1:45:536:35 9.1211390OVERIJSE
161.14555VAN HUMBEECK Jan64BEL1:46:016:36 9.1111433KASTERLEE
162.2925VANHAM Richard63BEL1:46:346:38 9.0611567BRASSCHAAT
163.4163VANPOUCKE Jos62BEL1:46:526:39 9.0411636KORTRIJK
164.13719VAN GILS Jef60BEL1:47:046:40 9.0211675BRASSCHAAT
165.7853FELICIANUS Victor64BEL1:47:046:40 9.0211677BERENDRECHT
166.9727MICHIELSEN Frans61BEL1:47:046:40 9.0211680TURNHOUT
167.13204JANSSENS Cornelius62BEL1:47:376:42 8.9711827ANTWERPEN 1
168.19016MESKENS Kamiel61BEL1:47:486:42 8.9611887HINGENE
169.19135GUNS Rene60BEL1:48:316:45 8.9012077DENDERMONDE
170.5211LAZOU Johan60BEL1:48:346:45 8.9012095ROOSDAAL
171.13252STUER Robert62BEL1:48:416:46 8.8912121MERKSEM
172.5332NIEUWBORG Frans61BEL1:48:526:46 8.8712157ROOSDAAL
173.18961JEURISSEN Guido60BEL1:48:576:47 8.8612179KONTICH
174.8759VAN LOON Gust62BEL1:49:076:47 8.8512225KALMTHOUT
175.16850WEYN Cesar64BEL1:49:496:50 8.7912388
176.7522VUYLSTEKE Antoine60BEL1:50:376:53 8.7312531DEURNE (ANTWERPEN)
177.14284VERBIEST Gustaaf60BEL1:50:416:53 8.7312548OLEN
178.18596PEETERS Pierre63BEL1:52:186:59 8.6012893MERKSEM (ANTWERPEN)
179.9399DE MEESTER Willy60BEL1:52:497:01 8.5612998WOMMELGEM
180.9146DE WACHTER Carl62BEL1:53:017:02 8.5513033KORTRIJK
181.16693COUMANS Jean Pierre64BEL1:53:367:04 8.5013128
182.3913MEURS Andre62BEL1:53:577:05 8.4813181PEER
183.10015KUPPENS Lieve60BEL1:54:047:06 8.4713206BORGERHOUT (ANTWERPEN)
184.13553MEEUS Roger64BEL1:54:307:07 8.4413284DEURNE (ANTWERPEN)
185.4886DE BEER Remy60BEL1:54:517:09 8.4113353MORTSEL
186.16259CONVENTS Robert60BEL1:55:247:11 8.3713433
187.16458SAMSON Aime62BEL1:55:497:12 8.3413498
188.409VERHEES Andre60NLD1:56:187:14 8.3013571LEENDE
189.1250VAN GORP Jacques64BEL1:56:287:15 8.2913590MERKSEM
190.14103VAN CAMP Karel63BEL1:56:317:15 8.2913596RIJKEVORSEL
191.2130BOSCHMAN Herman62NLD1:56:557:16 8.2613634LENT
192.8928BOEDELS Leo62NLD1:57:297:18 8.2213709ROTTERDAM
193.2963BUSCH Alfred63BEL1:57:357:19 8.2113722KNOKKE-HEIST
194.4252LEYSSENS Jacques64BEL1:58:437:23 8.1313830EKEREN (ANTWERPEN)
195.11337FATTA Eddy64BEL2:00:097:28 8.0413981WESTMALLE
196.4355VERELST Greet63FRA2:01:147:32 7.9714055LA FERRIERE BECHET
197.12917RENDERS Roger63BEL2:01:157:33 7.9614058VREMDE
DNF: abandon; DSQ: disqualifié; Vitesse en km/h
ChronoRace - Electronic Timing - www.chronorace.be